N77UK TNCS-TFFJ

Flight info

Callsign N77UK
Flight time 0h 19m
Altitude 3000
Route DCT TFFJ
Aircraft C172/L-SFG/C

Departure

Time 2026-04-24 11:39
Airport Juancho E. Yrausquin Airport (TNCS)

Arrival

Time 2026-04-24 11:58
Airport St. Jean Airport (TFFJ)
Time Latitude Longitude Altitude Speed Heading
2026-04-24 11:27 17.64463 -63.22048 129 ft 0 kts 29°
2026-04-24 11:34 17.64464 -63.22048 129 ft 0 kts 29°
2026-04-24 11:35 17.64466 -63.22046 129 ft 0 kts 28°
2026-04-24 11:35 17.64473 -63.22042 128 ft 2 kts 25°
2026-04-24 11:36 17.64490 -63.22035 128 ft 4 kts 21°
2026-04-24 11:36 17.64499 -63.22032 128 ft 0 kts 20°
2026-04-24 11:37 17.64499 -63.22031 128 ft 1 kts 20°
2026-04-24 11:37 17.64507 -63.21968 125 ft 13 kts 109°
2026-04-24 11:37 17.64483 -63.21892 120 ft 10 kts 107°
2026-04-24 11:37 17.64471 -63.21881 119 ft 2 kts 206°
2026-04-24 11:38 17.64474 -63.21894 118 ft 2 kts 299°
2026-04-24 11:38 17.64538 -63.22054 129 ft 51 kts 295°
2026-04-24 11:38 17.64749 -63.22486 220 ft 69 kts 328°
2026-04-24 11:38 17.65155 -63.22502 357 ft 64 kts 45°
2026-04-24 11:39 17.65232 -63.22078 541 ft 62 kts 115°
2026-04-24 11:39 17.64963 -63.21683 681 ft 73 kts 115°
2026-04-24 11:39 17.64846 -63.21151 883 ft 70 kts 83°
2026-04-24 11:39 17.64482 -63.20848 776 ft 98 kts 195°
2026-04-24 11:40 17.63999 -63.21289 572 ft 88 kts 246°
2026-04-24 11:40 17.64260 -63.21704 240 ft 72 kts 341°
2026-04-24 11:40 17.64553 -63.22087 133 ft 62 kts 288°
2026-04-24 11:40 17.64815 -63.22525 188 ft 76 kts 340°
2026-04-24 11:41 17.65195 -63.22315 255 ft 70 kts 90°
2026-04-24 11:41 17.65034 -63.21853 278 ft 65 kts 110°
2026-04-24 11:41 17.64813 -63.21452 288 ft 62 kts 117°
2026-04-24 11:41 17.64415 -63.21301 277 ft 79 kts 198°
2026-04-24 11:42 17.64374 -63.21764 175 ft 75 kts 327°
2026-04-24 11:42 17.64594 -63.22221 174 ft 74 kts 292°
2026-04-24 11:42 17.64807 -63.22717 254 ft 73 kts 314°
2026-04-24 11:42 17.65244 -63.22890 294 ft 68 kts 27°
2026-04-24 11:43 17.65521 -63.22535 370 ft 65 kts 65°
2026-04-24 11:43 17.65816 -63.22115 497 ft 79 kts 58°
2026-04-24 11:43 17.66139 -63.21640 637 ft 80 kts 51°
2026-04-24 11:43 17.66552 -63.21230 827 ft 75 kts 53°
2026-04-24 11:44 17.66905 -63.20833 924 ft 77 kts 57°
2026-04-24 11:44 17.67110 -63.20610 978 ft 82 kts 54°
2026-04-24 11:44 17.67463 -63.20111 1083 ft 88 kts 57°
2026-04-24 11:44 17.67846 -63.19588 1202 ft 93 kts 56°
2026-04-24 11:45 17.68279 -63.19052 1363 ft 98 kts 55°
2026-04-24 11:45 17.68730 -63.18512 1533 ft 98 kts 54°
2026-04-24 11:45 17.69188 -63.17967 1701 ft 100 kts 53°
2026-04-24 11:45 17.69640 -63.17408 1885 ft 101 kts 54°
2026-04-24 11:46 17.70101 -63.16860 2053 ft 100 kts 54°
2026-04-24 11:46 17.70557 -63.16303 2208 ft 100 kts 54°
2026-04-24 11:46 17.71004 -63.15757 2392 ft 100 kts 54°
2026-04-24 11:46 17.71466 -63.15204 2586 ft 101 kts 54°
2026-04-24 11:47 17.71925 -63.14648 2747 ft 102 kts 54°
2026-04-24 11:47 17.72385 -63.14086 2881 ft 103 kts 54°
2026-04-24 11:47 17.72834 -63.13472 2944 ft 109 kts 59°
2026-04-24 11:47 17.73270 -63.12794 2984 ft 115 kts 61°
2026-04-24 11:48 17.73706 -63.12069 2986 ft 119 kts 62°
2026-04-24 11:48 17.74144 -63.11321 3006 ft 122 kts 62°
2026-04-24 11:48 17.74586 -63.10553 3010 ft 124 kts 62°
2026-04-24 11:48 17.75017 -63.09804 2999 ft 119 kts 62°
2026-04-24 11:49 17.75462 -63.09076 3006 ft 118 kts 58°
2026-04-24 11:49 17.75967 -63.08403 3012 ft 117 kts 54°
2026-04-24 11:49 17.76495 -63.07749 3017 ft 118 kts 52°
2026-04-24 11:49 17.77049 -63.07115 3020 ft 119 kts 51°
2026-04-24 11:50 17.77622 -63.06488 3009 ft 119 kts 50°
2026-04-24 11:50 17.78192 -63.05864 3017 ft 119 kts 50°
2026-04-24 11:50 17.78745 -63.05224 3016 ft 118 kts 54°
2026-04-24 11:50 17.79254 -63.04545 3017 ft 118 kts 57°
2026-04-24 11:51 17.79729 -63.03840 3020 ft 118 kts 59°
2026-04-24 11:51 17.80186 -63.03138 3014 ft 118 kts 59°
2026-04-24 11:51 17.80641 -63.02421 3013 ft 118 kts 60°
2026-04-24 11:51 17.81092 -63.01702 3010 ft 118 kts 59°
2026-04-24 11:52 17.81539 -63.00988 3007 ft 117 kts 60°
2026-04-24 11:52 17.81988 -63.00278 3018 ft 117 kts 60°
2026-04-24 11:52 17.82438 -62.99562 3017 ft 117 kts 60°
2026-04-24 11:52 17.82887 -62.98847 3019 ft 118 kts 60°
2026-04-24 11:53 17.83336 -62.98131 3023 ft 118 kts 60°
2026-04-24 11:53 17.83796 -62.97410 3015 ft 119 kts 58°
2026-04-24 11:53 17.84315 -62.96712 2922 ft 126 kts 54°
2026-04-24 11:53 17.84868 -62.95967 2610 ft 131 kts 54°
2026-04-24 11:54 17.85400 -62.95226 2395 ft 125 kts 55°
2026-04-24 11:54 17.85944 -62.94496 2147 ft 134 kts 54°
2026-04-24 11:54 17.86527 -62.93719 2046 ft 135 kts 56°
2026-04-24 11:54 17.87113 -62.92947 1919 ft 137 kts 54°
2026-04-24 11:55 17.87675 -62.92215 1512 ft 121 kts 56°
2026-04-24 11:55 17.88175 -62.91547 1162 ft 111 kts 54°
2026-04-24 11:55 17.88656 -62.90918 801 ft 111 kts 55°
2026-04-24 11:55 17.89126 -62.90319 601 ft 102 kts 52°
2026-04-24 11:56 17.89548 -62.89780 526 ft 89 kts 57°
2026-04-24 11:56 17.89860 -62.89244 464 ft 88 kts 63°
2026-04-24 11:56 17.90128 -62.88722 460 ft 79 kts 68°
2026-04-24 11:56 17.90291 -62.88200 463 ft 75 kts 77°
2026-04-24 11:57 17.90417 -62.87659 438 ft 80 kts 82°
2026-04-24 11:57 17.90450 -62.87078 463 ft 78 kts 95°
2026-04-24 11:57 17.90433 -62.86554 410 ft 70 kts 96°
2026-04-24 11:57 17.90476 -62.86050 409 ft 68 kts 89°
2026-04-24 11:58 17.90461 -62.85600 334 ft 60 kts 96°
2026-04-24 11:58 17.90441 -62.85182 251 ft 57 kts 93°
2026-04-24 11:58 17.90436 -62.84764 140 ft 58 kts 93°
2026-04-24 11:58 17.90438 -62.84368 32 ft 43 kts 92°
2026-04-24 11:59 17.90446 -62.84134 16 ft 21 kts 88°
2026-04-24 11:59 17.90449 -62.84066 10 ft 6 kts 208°
2026-04-24 11:59 17.90444 -62.84133 16 ft 12 kts 268°
2026-04-24 11:59 17.90441 -62.84290 28 ft 23 kts 270°
2026-04-24 12:00 17.90423 -62.84384 33 ft 1 kts 207°
2026-04-24 12:00 17.90418 -62.84386 34 ft 5 kts 197°
2026-04-24 12:00 17.90383 -62.84395 35 ft 3 kts 160°
2026-04-24 12:00 17.90374 -62.84383 34 ft 0 kts 14°
2026-04-24 12:01 17.90380 -62.84382 34 ft 0 kts 18°